GW4136 Weather Reports


time (UTC)temp
C
wind
direction
speed
KPH
gust
KPH
rain 1hr
cm
rain 24hr
cm
rain mn
cm
humidity
%
barometer
mb
20260508065105 10 3 0.0 1.6 0.00 0.00 0.00 82 1018.0
20260508064605 10 30 0.0 1.6 0.00 0.00 0.00 82 1018.0
20260508063605 10 326 0.0 1.6 0.00 0.00 0.00 82 1017.9
20260508062605 10 346 0.0 0.0 0.00 0.00 0.00 83 1017.9
20260508061105 10 352 0.0 1.6 0.00 0.00 0.00 84 1017.8
20260508060605 10 11 0.0 1.6 0.00 0.00 0.00 84 1017.8
20260508060105 9 15 0.0 0.0 0.00 0.00 0.00 84 1017.8
20260508055605 9 15 0.0 1.6 0.00 0.00 0.00 84 1017.8
20260508055105 9 15 0.0 0.0 0.00 0.00 0.00 85 1017.8
20260508054605 9 29 0.0 0.0 0.00 0.00 0.00 85 1017.7
20260508053606 9 44 0.0 0.0 0.00 0.00 0.00 85 1017.4
20260508053106 9 44 0.0 0.0 0.00 0.00 0.00 85 1017.4
20260508052605 9 319 0.0 0.0 0.00 0.00 0.00 85 1017.3
20260508051606 9 337 0.0 1.6 0.00 0.00 0.00 86 1017.3
20260508051106 9 321 0.0 1.6 0.00 0.00 0.00 85 1017.3
20260508050605 9 331 0.0 1.6 0.00 0.00 0.00 85 1017.4
20260508050106 8 332 0.0 1.6 0.00 0.00 0.00 85 1017.4
20260508045605 8 304 0.0 0.0 0.00 0.00 0.00 85 1017.5
20260508044605 8 304 0.0 0.0 0.00 0.00 0.00 84 1017.4
20260508044105 8 304 0.0 0.0 0.00 0.00 0.00 84 1017.4
20260508043605 8 304 0.0 0.0 0.00 0.00 0.00 84 1017.4
20260508042106 9 304 0.0 1.6 0.00 0.00 0.00 83 1017.3
20260508041605 9 48 0.0 0.0 0.00 0.00 0.00 82 1017.3
20260508041105 9 48 0.0 0.0 0.00 0.00 0.00 82 1017.2
20260508040606 9 48 0.0 0.0 0.00 0.00 0.00 82 1017.2
20260508040106 9 33 0.0 0.0 0.00 0.00 0.00 82 1017.2
20260508035604 9 30 0.0 1.6 0.00 0.00 0.00 82 1017.2
20260508035105 9 72 0.0 1.6 0.00 0.00 0.00 82 1017.1
20260508034605 9 76 0.0 1.6 0.00 0.00 0.00 81 1017.2
20260508033104 9 16 0.0 0.0 0.00 0.00 0.00 82 1017.1
20260508032106 9 356 0.0 0.0 0.00 0.00 0.00 82 1017.0
20260508031605 9 356 0.0 0.0 0.00 0.00 0.00 82 1017.1
20260508031106 9 351 0.0 0.0 0.00 0.00 0.00 82 1017.1
20260508030606 9 345 0.0 0.0 0.00 0.00 0.00 82 1017.2
20260508030106 9 346 0.0 0.0 0.00 0.00 0.00 82 1017.2
20260508025606 9 345 0.0 0.0 0.00 0.00 0.00 82 1017.3
20260508025106 10 12 0.0 0.0 0.00 0.00 0.00 82 1017.3
20260508024105 10 12 0.0 0.0 0.00 0.00 0.00 81 1017.2
20260508023606 10 12 0.0 0.0 0.00 0.00 0.00 81 1017.2
20260508023106 10 12 0.0 0.0 0.00 0.00 0.00 81 1017.2
20260508022606 10 65 0.0 1.6 0.00 0.00 0.00 81 1017.2
20260508022106 10 58 0.0 0.0 0.00 0.00 0.00 81 1017.1
20260508021606 10 92 0.0 1.6 0.00 0.00 0.00 81 1017.1
20260508021106 10 94 0.0 1.6 0.00 0.00 0.00 81 1017.1
20260508020606 10 22 0.0 1.6 0.00 0.00 0.00 81 1017.1
20260508020106 10 81 0.0 1.6 0.00 0.00 0.00 81 1017.1
20260508015606 10 72 0.0 1.6 0.00 0.00 0.00 82 1017.1
20260508015105 10 336 0.0 1.6 0.00 0.00 0.00 82 1017.1
20260508014606 10 92 0.0 1.6 0.00 0.00 0.00 83 1017.0
20260508014106 10 312 0.0 0.0 0.00 0.00 0.00 83 1017.0
20260508013606 10 8 0.0 1.6 0.00 0.00 0.00 84 1017.0
20260508013104 10 49 0.0 1.6 0.00 0.00 0.00 84 1017.0
20260508012606 10 36 0.0 1.6 0.00 0.00 0.00 84 1017.0
20260508012105 10 352 0.0 3.2 0.00 0.00 0.00 84 1017.1
20260508011605 10 8 0.0 1.6 0.00 0.00 0.00 85 1017.1
20260508010606 10 6 0.0 0.0 0.00 0.00 0.00 86 1017.1
20260508010106 10 110 0.0 1.6 0.00 0.00 0.00 86 1017.1
20260508005106 10 355 0.0 0.0 0.00 0.00 0.00 86 1017.2
20260508004606 10 355 0.0 0.0 0.00 0.00 0.00 86 1017.3
20260508004106 10 355 0.0 0.0 0.00 0.00 0.00 85 1017.2
20260508003106 10 356 0.0 0.0 0.00 0.00 0.00 85 1017.3
20260508002606 10 356 0.0 1.6 0.00 0.00 0.00 85 1017.3
20260508002106 10 51 0.0 1.6 0.00 0.00 0.00 85 1017.4
20260508001106 10 17 0.0 1.6 0.00 0.00 0.00 85 1017.4
20260508000106 10 16 0.0 0.0 0.00 0.00 0.00 85 1017.3
20260507235605 10 16 0.0 1.6 0.00 0.00 0.00 84 1017.4
20260507235106 10 34 0.0 0.0 0.00 0.00 0.00 84 1017.4
20260507234606 10 34 0.0 0.0 0.00 0.00 0.00 83 1017.4
20260507234106 10 34 0.0 0.0 0.00 0.00 0.00 82 1017.4
20260507233106 11 34 0.0 0.0 0.00 0.00 0.00 81 1017.4
20260507232612 11 34 0.0 0.0 0.00 0.00 0.00 80 1017.4
20260507232106 11 34 0.0 0.0 0.00 0.00 0.00 80 1017.4
20260507231607 11 34 0.0 0.0 0.00 0.00 0.00 80 1017.4
20260507231106 11 34 0.0 0.0 0.00 0.00 0.00 80 1017.4
20260507230605 11 34 0.0 0.0 0.00 0.00 0.00 79 1017.4
20260507230106 11 34 0.0 0.0 0.00 0.00 0.00 79 1017.4
20260507225606 11 34 0.0 0.0 0.00 0.00 0.00 79 1017.4
20260507225105 11 34 0.0 0.0 0.00 0.00 0.00 79 1017.4
20260507224105 11 34 0.0 0.0 0.00 0.00 0.00 79 1017.4
20260507223605 11 34 0.0 0.0 0.00 0.00 0.00 79 1017.4
20260507223104 11 34 0.0 0.0 0.00 0.00 0.00 78 1017.4
20260507222604 11 34 0.0 0.0 0.00 0.00 0.00 78 1017.4
20260507221105 11 34 0.0 0.0 0.00 0.00 0.00 78 1017.4
20260507220605 11 34 0.0 0.0 0.00 0.00 0.00 78 1017.5
20260507220105 11 34 0.0 0.0 0.00 0.00 0.00 77 1017.4
20260507215604 11 34 0.0 0.0 0.00 0.00 0.00 77 1017.5
20260507215104 11 34 0.0 0.0 0.00 0.00 0.00 77 1017.4
20260507214605 11 34 0.0 0.0 0.00 0.00 0.00 77 1017.5
20260507214104 11 34 0.0 0.0 0.00 0.00 0.00 77 1017.4
20260507213605 11 33 0.0 1.6 0.00 0.00 0.00 76 1017.5
20260507213104 11 83 0.0 0.0 0.00 0.00 0.00 76 1017.5
20260507212606 11 83 0.0 1.6 0.00 0.00 0.00 76 1017.4
20260507212105 11 75 0.0 1.6 0.00 0.00 0.00 76 1017.4
20260507211104 11 81 0.0 0.0 0.00 0.00 0.00 76 1017.3
20260507210105 11 81 0.0 0.0 0.00 0.00 0.00 76 1017.3
20260507205604 11 81 0.0 1.6 0.00 0.00 0.00 75 1017.3
20260507205104 11 90 0.0 3.2 0.00 0.00 0.00 75 1017.2
20260507204604 11 107 0.0 1.6 0.00 0.00 0.00 76 1017.2
20260507204104 11 343 0.0 1.6 0.00 0.00 0.00 76 1017.2
20260507203605 11 80 0.0 0.0 0.00 0.00 0.00 76 1017.2
20260507203105 11 37 0.0 0.0 0.00 0.00 0.00 76 1017.1
20260507202605 11 87 0.0 0.0 0.00 0.00 0.00 76 1017.1
20260507202104 11 91 0.0 0.0 0.00 0.00 0.00 76 1017.0
20260507201604 11 91 0.0 0.0 0.00 0.00 0.00 76 1017.0
20260507201104 12 110 0.0 0.0 0.00 0.00 0.00 76 1017.0
20260507200604 12 110 0.0 1.6 0.00 0.00 0.00 75 1017.0
20260507200104 12 131 0.0 0.0 0.00 0.00 0.00 75 1017.0
20260507195604 12 131 0.0 1.6 0.00 0.00 0.00 75 1016.9
20260507195104 12 143 0.0 1.6 0.00 0.00 0.00 74 1016.9
20260507194604 12 133 0.0 1.6 0.00 0.00 0.00 73 1016.8
20260507194104 12 179 0.0 1.6 0.00 0.00 0.00 72 1016.8
20260507193604 12 137 0.0 0.0 0.00 0.00 0.00 70 1016.8
20260507193105 12 128 0.0 3.2 0.00 0.00 0.00 69 1016.7
20260507192604 12 87 0.0 3.2 0.00 0.00 0.00 69 1016.7
20260507191604 12 123 0.0 3.2 0.00 0.00 0.00 68 1016.7
20260507191104 13 125 1.6 8.0 0.00 0.00 0.00 67 1016.7
20260507190603 13 84 1.6 4.8 0.00 0.00 0.00 67 1016.6
20260507190104 13 94 0.0 1.6 0.00 0.00 0.00 67 1016.6
20260507185604 13 92 1.6 4.8 0.00 0.00 0.00 66 1016.5
20260507184104 13 91 0.0 3.2 0.00 0.00 0.00 66 1016.5
20260507183604 13 92 1.6 4.8 0.00 0.00 0.00 65 1016.4
20260507182604 13 92 1.6 4.8 0.00 0.00 0.00 64 1016.3
20260507181604 13 64 1.6 4.8 0.00 0.00 0.00 64 1016.2
20260507181104 13 109 0.0 4.8 0.00 0.00 0.00 63 1016.2
20260507180604 13 94 1.6 4.8 0.00 0.00 0.00 63 1016.2
20260507180105 13 103 1.6 8.0 0.00 0.00 0.00 62 1016.2
20260507175104 13 98 0.0 3.2 0.00 0.00 0.00 61 1016.2
20260507174605 13 91 0.0 3.2 0.00 0.00 0.00 61 1016.3
20260507173105 14 88 0.0 4.8 0.00 0.00 0.00 60 1016.3
20260507172605 14 61 1.6 11.3 0.00 0.00 0.00 59 1016.3
20260507172105 14 109 0.0 4.8 0.00 0.00 0.00 58 1016.3
20260507171605 14 89 1.6 4.8 0.00 0.00 0.00 57 1016.3
20260507171104 14 82 1.6 4.8 0.00 0.00 0.00 58 1016.3
20260507170604 14 93 0.0 4.8 0.00 0.00 0.00 57 1016.3
20260507170104 14 95 1.6 4.8 0.00 0.00 0.00 56 1016.3
20260507165603 14 23 1.6 9.7 0.00 0.00 0.00 57 1016.3
20260507164104 15 95 3.2 9.7 0.00 0.00 0.00 55 1016.2
20260507163604 15 80 3.2 11.3 0.00 0.00 0.00 55 1016.2
20260507160604 15 62 0.0 4.8 0.00 0.00 0.00 56 1016.1
20260507160104 15 57 0.0 4.8 0.00 0.00 0.00 57 1016.2
20260507155604 15 30 1.6 4.8 0.00 0.00 0.00 56 1016.1
20260507155104 15 10 3.2 9.7 0.00 0.00 0.00 57 1016.2
20260507154605 15 90 0.0 3.2 0.00 0.00 0.00 57 1016.1
20260507154104 15 103 1.6 4.8 0.00 0.00 0.00 57 1016.2
20260507153604 15 67 0.0 3.2 0.00 0.00 0.00 56 1016.2
20260507153104 15 57 0.0 4.8 0.00 0.00 0.00 55 1016.2
20260507152605 15 88 0.0 4.8 0.00 0.00 0.00 55 1016.3
20260507152104 15 38 0.0 1.6 0.00 0.00 0.00 56 1016.2
20260507151604 15 335 0.0 1.6 0.00 0.00 0.00 55 1016.3
20260507150605 16 27 0.0 4.8 0.00 0.00 0.00 54 1016.3
20260507150105 16 333 0.0 4.8 0.00 0.00 0.00 53 1016.3
20260507145604 16 0 0.0 1.6 0.00 0.00 0.00 54 1016.3
20260507145103 16 17 0.0 1.6 0.00 0.00 0.00 53 1016.4
20260507144605 16 135 1.6 4.8 0.00 0.00 0.00 54 1016.4
20260507144104 16 91 1.6 8.0 0.00 0.00 0.00 53 1016.4
20260507143104 15 89 0.0 4.8 0.00 0.00 0.00 54 1016.4
20260507142605 15 70 0.0 3.2 0.00 0.00 0.00 54 1016.5
20260507142105 16 349 0.0 3.2 0.00 0.00 0.00 54 1016.6
20260507141605 16 75 0.0 4.8 0.00 0.00 0.00 53 1016.6
20260507141105 16 33 0.0 4.8 0.00 0.00 0.00 55 1016.6
20260507140106 16 330 0.0 3.2 0.00 0.00 0.00 55 1016.7
20260507135605 15 354 1.6 4.8 0.00 0.00 0.00 56 1016.8
20260507134605 15 70 0.0 8.0 0.00 0.00 0.00 55 1016.8
20260507134104 15 109 0.0 9.7 0.00 0.00 0.00 56 1016.8
20260507133604 15 111 1.6 9.7 0.00 0.00 0.00 58 1016.8
20260507133104 15 83 1.6 8.0 0.00 0.00 0.00 57 1016.8
20260507132605 15 52 0.0 4.8 0.00 0.00 0.00 57 1016.8
20260507132105 15 2 1.6 4.8 0.00 0.00 0.00 56 1016.9
20260507131605 15 346 0.0 3.2 0.00 0.00 0.00 58 1016.9
20260507131105 15 19 1.6 4.8 0.00 0.00 0.00 54 1016.9
20260507130604 16 79 1.6 4.8 0.00 0.00 0.00 54 1016.9
20260507130105 16 83 1.6 3.2 0.00 0.00 0.00 54 1016.9
20260507125605 16 67 0.0 4.8 0.00 0.00 0.00 54 1016.9
20260507125105 16 88 1.6 4.8 0.00 0.00 0.00 55 1016.9
20260507124605 16 107 1.6 8.0 0.00 0.00 0.00 54 1016.9
20260507124105 16 87 1.6 9.7 0.00 0.00 0.00 56 1017.0
20260507123604 15 73 0.0 4.8 0.00 0.00 0.00 58 1017.0
20260507123104 15 99 1.6 4.8 0.00 0.00 0.00 55 1017.0
20260507122605 16 98 0.0 9.7 0.00 0.00 0.00 56 1017.0
20260507122105 16 82 1.6 3.2 0.00 0.00 0.00 57 1017.0
20260507121605 15 262 0.0 3.2 0.00 0.00 0.00 58 1017.0
20260507121105 15 290 0.0 3.2 0.00 0.00 0.00 58 1017.1
20260507120605 15 42 0.0 3.2 0.00 0.00 0.00 60 1017.1
20260507115605 15 32 0.0 4.8 0.00 0.00 0.00 64 1017.2
20260507115105 14 12 0.0 4.8 0.00 0.00 0.00 66 1017.2
20260507114605 14 73 0.0 4.8 0.00 0.00 0.00 69 1017.2
20260507114105 13 2 0.0 4.8 0.00 0.00 0.00 69 1017.4
20260507113605 13 90 0.0 3.2 0.00 0.00 0.00 69 1017.5
20260507112106 12 94 1.6 3.2 0.00 0.00 0.00 70 1017.6
20260507111606 12 92 0.0 4.8 0.00 0.00 0.00 71 1017.7
20260507110605 12 22 0.0 3.2 0.00 0.00 0.00 71 1017.8
20260507110105 12 347 0.0 3.2 0.00 0.00 0.00 74 1017.8
20260507105605 12 61 1.6 4.8 0.00 0.00 0.00 74 1017.9
20260507105105 12 56 0.0 4.8 0.00 0.00 0.00 75 1017.9
20260507104605 11 85 0.0 3.2 0.00 0.00 0.00 75 1017.9
20260507104109 11 77 1.6 4.8 0.00 0.00 0.00 74 1018.0
20260507103605 11 94 0.0 1.6 0.00 0.00 0.00 75 1017.9
20260507103105 11 92 0.0 4.8 0.00 0.00 0.00 75 1018.0
20260507102605 11 87 0.0 4.8 0.00 0.00 0.00 76 1018.0
20260507101605 11 319 0.0 1.6 0.00 0.00 0.00 78 1018.0
20260507101105 11 88 0.0 3.2 0.00 0.00 0.00 77 1018.0
20260507100605 11 353 0.0 3.2 0.00 0.00 0.00 78 1018.0
20260507095605 10 27 0.0 3.2 0.00 0.00 0.00 78 1018.0
20260507095105 10 91 0.0 1.6 0.00 0.00 0.00 78 1018.0
20260507094605 10 85 0.0 3.2 0.00 0.00 0.00 78 1018.0
20260507093605 10 13 0.0 3.2 0.00 0.00 0.00 80 1017.8
20260507093105 10 354 0.0 1.6 0.00 0.00 0.00 80 1017.8
20260507092605 10 14 0.0 3.2 0.00 0.00 0.00 80 1017.9
20260507091605 10 16 0.0 4.8 0.00 0.00 0.00 81 1017.9
20260507091105 10 80 0.0 1.6 0.00 0.00 0.00 81 1017.9
20260507090605 10 287 0.0 1.6 0.00 0.00 0.00 82 1017.9
20260507085605 9 353 0.0 1.6 0.00 0.00 0.00 82 1017.9
20260507084605 9 76 0.0 3.2 0.00 0.00 0.00 83 1017.9
20260507084105 9 26 0.0 3.2 0.00 0.00 0.00 83 1017.9
20260507083605 9 334 0.0 3.2 0.00 0.00 0.00 83 1017.9
20260507083105 8 68 0.0 1.6 0.00 0.00 0.00 83 1017.9
20260507082605 8 97 0.0 1.6 0.00 0.00 0.00 84 1017.8
20260507082105 8 19 0.0 1.6 0.00 0.00 0.00 84 1017.9
20260507081606 8 12 0.0 3.2 0.00 0.00 0.00 85 1017.7
20260507081105 8 302 0.0 3.2 0.00 0.00 0.00 85 1017.7
20260507080105 8 347 0.0 3.2 0.00 0.00 0.00 85 1017.7
20260507075605 8 293 0.0 1.6 0.00 0.00 0.00 86 1017.7
20260507075105 8 42 0.0 0.0 0.00 0.00 0.00 86 1017.7
20260507074605 8 72 0.0 1.6 0.00 0.00 0.00 87 1017.7
20260507074105 8 31 0.0 1.6 0.00 0.00 0.00 87 1017.8
20260507073605 7 90 0.0 1.6 0.00 0.00 0.00 87 1017.8
20260507073105 7 104 0.0 1.6 0.00 0.00 0.00 87 1017.8
20260507072605 7 83 0.0 1.6 0.00 0.00 0.00 87 1017.8
20260507071605 7 349 0.0 1.6 0.00 0.00 0.00 88 1017.7
20260507071105 7 60 0.0 3.2 0.00 0.00 0.00 88 1017.7
20260507070605 7 89 0.0 3.2 0.00 0.00 0.00 88 1017.7
20260507070106 7 321 0.0 4.8 0.00 0.00 0.00 89 1017.7
20260507065604 7 114 0.0 1.6 0.00 0.00 0.00 89 1017.7